Glasgow, MT

5:44 PM MDT on July 24, 2017 (GMT -0600)
Wokal-Glasgow International

Weather History for KGGW - February, 2012

Change the Weather History Date:

Tuesday, February 14, 2012

  Actual Average Record
Temperature  
Mean Temperature 24 °F 19 °F  
Max Temperature 30 °F 29 °F 49 °F (1998)
Min Temperature 18 °F 9 °F -54 °F (1936)
Degree Days  
Heating Degree Days 41 46  
Month to date heating degree days 594 671  
Since 1 July heating degree days 4847 5760  
Cooling Degree Days 0 0  
Month to date cooling degree days 0 0  
Year to date cooling degree days 0 0  
Moisture  
Dew Point 25 °F    
Average Humidity 91    
Maximum Humidity 100    
Minimum Humidity 81    
Precipitation  
Precipitation 0.17 in 0.01 in 0.21 in (1905)
Month to date precipitation 0.17 0.12  
Year to date precipitation 0.32 0.49  
Snow  
Snow 2.70 in 0.20 in 4.00 in (1965)
Month to date snowfall 2.7 2.2  
Since 1 July snowfall 18.1 24.8  
Snow Depth 0.00 in    
Sea Level Pressure  
Sea Level Pressure 29.73 in    
Wind  
Wind Speed 8 mph (NW)    
Max Wind Speed 17 mph    
Max Gust Speed 21 mph    
Visibility 3 miles    
Events Fog , Snow    
T = Trace of Precipitation, MM = Missing Value Source: NWS Daily Summary

Daily Weather History Graph

Daily Weather History Graph

Search for Another Location

Airport or City:

Trip Planner

Search our weather history database for the weather conditions in past years. The results will help you decide how hot, cold, wet, or windy it might be!

Date:

Astronomy

Feb. 14, 2012 Rise Set
Actual Time 7:15 AM MST 5:26 PM MST
Civil Twilight 6:43 AM MST 5:58 PM MST
Nautical Twilight 6:06 AM MST 6:35 PM MST
Astronomical Twilight 5:30 AM MST 7:11 PM MST
Moon 1:15 AM MST (2/14) 10:21 AM MST (2/14)
Length of Visible Light 11h 15m
Length of Day
10h 10m
Waning Gibbous, 49% of the Moon is Illuminated
Feb 14
Waning Gibbous
Feb 21
New
Feb 29
First Quarter
Mar 8
Full
Mar 14
Last Quarter

Hourly Weather History & Observations

Time (MST) Temp. Windchill Dew Point Humidity Pressure Visibility Wind Dir Wind Speed Gust Speed Precip Events Conditions
12:53 AM 26.1 °F 20.5 °F 21.9 °F 84% 29.73 in 10.0 mi NNW 4.6 mph - N/A   Clear
1:53 AM 24.8 °F 16.1 °F 21.2 °F 86% 29.66 in 10.0 mi North 8.1 mph - N/A   Overcast
2:53 AM 24.1 °F 17.0 °F 21.0 °F 88% 29.74 in 10.0 mi WSW 5.8 mph - N/A   Overcast
3:53 AM 25.0 °F 17.1 °F 21.9 °F 88% 29.73 in 10.0 mi NW 6.9 mph - N/A   Overcast
4:53 AM 24.8 °F 19.1 °F 21.2 °F 86% 29.66 in 10.0 mi NNW 4.6 mph - N/A   Overcast
5:53 AM 23.0 °F 18.4 °F 19.9 °F 88% 29.74 in 10.0 mi NNW 3.5 mph - N/A   Overcast
6:53 AM 25.0 °F 20.7 °F 21.9 °F 88% 29.75 in 10.0 mi West 3.5 mph - N/A   Overcast
7:53 AM 25.0 °F 18.1 °F 23.0 °F 92% 29.75 in 10.0 mi NW 5.8 mph - N/A   Overcast
8:07 AM 26.6 °F 19.1 °F 23.0 °F 86% 29.66 in 2.5 mi NW 6.9 mph - 0.00 in Snow Light Snow
8:09 AM 26.6 °F 18.2 °F 23.0 °F 86% 29.66 in 1.2 mi NW 8.1 mph - 0.00 in Snow Light Snow
8:14 AM 26.6 °F 19.1 °F 23.0 °F 86% 29.66 in 0.2 mi NW 6.9 mph - 0.01 in Fog , Snow Heavy Snow
8:28 AM 26.6 °F 18.2 °F 24.8 °F 93% 29.66 in 1.0 mi NNW 8.1 mph - 0.02 in Snow Light Snow
8:30 AM 26.6 °F 18.2 °F 24.8 °F 93% 29.66 in 1.5 mi NNW 8.1 mph - 0.02 in Snow Light Snow
8:32 AM 26.6 °F 18.2 °F 24.8 °F 93% 29.66 in 2.0 mi NNW 8.1 mph - 0.02 in Snow Light Snow
8:37 AM 26.6 °F 19.1 °F 24.8 °F 93% 29.66 in 1.8 mi NNW 6.9 mph - 0.02 in Snow Light Snow
8:50 AM 26.6 °F 19.1 °F 26.6 °F 100% 29.67 in 0.8 mi NW 6.9 mph - 0.02 in Snow Light Snow
8:53 AM 27.0 °F 19.5 °F 26.1 °F 96% 29.76 in 0.8 mi NW 6.9 mph - 0.02 in Snow Light Snow
9:02 AM 26.6 °F 19.1 °F 26.6 °F 100% 29.67 in 0.8 mi NNW 6.9 mph - 0.01 in Snow Light Snow
9:51 AM 28.4 °F 22.2 °F 26.6 °F 93% 29.67 in 1.2 mi NNW 5.8 mph - 0.04 in Snow Light Snow
9:53 AM 28.0 °F 21.7 °F 26.1 °F 92% 29.75 in 1.2 mi NNW 5.8 mph - 0.04 in Snow Light Snow
10:03 AM 28.4 °F 23.3 °F 24.8 °F 86% 29.67 in 1.5 mi NNW 4.6 mph - 0.00 in Snow Light Snow
10:13 AM 28.4 °F 22.2 °F 24.8 °F 86% 29.67 in 2.0 mi NW 5.8 mph - 0.00 in Snow Light Snow
10:22 AM 28.4 °F 22.2 °F 26.6 °F 93% 29.67 in 1.2 mi NW 5.8 mph - 0.00 in Snow Light Snow
10:33 AM 28.4 °F 23.3 °F 26.6 °F 93% 29.67 in 0.8 mi NW 4.6 mph - 0.00 in Snow Light Snow
10:51 AM 28.4 °F 22.2 °F 26.6 °F 93% 29.68 in 0.2 mi NW 5.8 mph - 0.02 in Fog , Snow Heavy Snow
10:53 AM 28.0 °F 21.7 °F 26.1 °F 92% 29.77 in 0.2 mi NW 5.8 mph - 0.02 in Fog , Snow Heavy Snow
11:07 AM 28.4 °F 22.2 °F 26.6 °F 93% 29.68 in 0.8 mi NW 5.8 mph - 0.01 in Snow Light Snow
11:15 AM 28.4 °F 21.2 °F 26.6 °F 93% 29.68 in 1.2 mi NW 6.9 mph - 0.02 in Snow Light Snow
11:21 AM 28.4 °F 21.2 °F 26.6 °F 93% 29.68 in 1.5 mi NW 6.9 mph - 0.02 in Snow Light Snow
11:27 AM 28.4 °F 20.4 °F 26.6 °F 93% 29.68 in 1.2 mi NW 8.1 mph - 0.02 in Snow Light Snow
11:45 AM 28.4 °F 19.1 °F 26.6 °F 93% 29.69 in 0.5 mi NW 10.4 mph - 0.03 in Fog , Snow Snow
11:51 AM 28.4 °F 19.7 °F 26.6 °F 93% 29.69 in 0.2 mi NW 9.2 mph - 0.03 in Fog , Snow Snow
11:53 AM 28.0 °F 19.3 °F 26.1 °F 92% 29.78 in 0.2 mi NW 9.2 mph - 0.03 in Fog , Snow Snow
12:13 PM 28.4 °F 19.7 °F 26.6 °F 93% 29.69 in 0.2 mi NW 9.2 mph - 0.03 in Fog , Snow Snow
12:39 PM 28.4 °F 17.0 °F 26.6 °F 93% 29.69 in 0.8 mi NW 15.0 mph - 0.05 in Snow Light Snow
12:45 PM 28.4 °F 18.0 °F 26.6 °F 93% 29.69 in 1.0 mi NNW 12.7 mph - 0.05 in Snow Light Snow
12:53 PM 28.9 °F 19.2 °F 26.1 °F 89% 29.78 in 0.8 mi NNW 11.5 mph - 0.06 in Snow Light Snow
1:37 PM 28.4 °F 19.1 °F 26.6 °F 93% 29.70 in 0.8 mi NW 10.4 mph - 0.02 in Snow Light Snow
1:44 PM 28.4 °F 19.1 °F 26.6 °F 93% 29.70 in 1.2 mi NW 10.4 mph - 0.02 in Snow Light Snow
1:53 PM 28.9 °F 19.2 °F 27.0 °F 92% 29.79 in 1.0 mi NW 11.5 mph - 0.02 in Snow Light Snow
2:03 PM 28.4 °F 19.7 °F 26.6 °F 93% 29.70 in 2.0 mi NW 9.2 mph - 0.00 in Snow Light Snow
2:17 PM 28.4 °F 19.7 °F 26.6 °F 93% 29.70 in 3.0 mi NW 9.2 mph - 0.00 in Snow Light Snow
2:25 PM 30.2 °F 21.9 °F 26.6 °F 86% 29.70 in 3.0 mi NW 9.2 mph - 0.00 in Snow Light Snow
2:30 PM 30.2 °F 21.3 °F 26.6 °F 86% 29.70 in 1.8 mi NW 10.4 mph - 0.00 in Snow Light Snow
2:37 PM 30.2 °F 20.8 °F 26.6 °F 86% 29.70 in 1.0 mi NW 11.5 mph - 0.01 in Snow Light Snow
2:44 PM 30.2 °F 19.8 °F 26.6 °F 86% 29.70 in 1.0 mi NW 13.8 mph - 0.01 in Snow Light Snow
2:53 PM 30.0 °F 19.5 °F 27.0 °F 88% 29.80 in 1.0 mi NW 13.8 mph - 0.01 in Snow Light Snow
3:14 PM 30.2 °F 19.8 °F 26.6 °F 86% 29.71 in 2.0 mi NW 13.8 mph - 0.00 in Snow Light Snow
3:20 PM 30.2 °F 20.2 °F 26.6 °F 86% 29.71 in 3.0 mi NW 12.7 mph - 0.00 in Snow Light Snow
3:27 PM 30.2 °F 21.3 °F 28.4 °F 93% 29.71 in 1.8 mi NW 10.4 mph - 0.00 in Snow Light Snow
3:47 PM 30.2 °F 19.8 °F 26.6 °F 86% 29.72 in 1.2 mi NW 13.8 mph - 0.01 in Snow Light Snow
3:53 PM 30.0 °F 20.0 °F 27.0 °F 88% 29.81 in 1.0 mi NW 12.7 mph - 0.01 in Snow Light Snow
4:04 PM 30.2 °F 19.8 °F 26.6 °F 86% 29.72 in 2.0 mi WNW 13.8 mph - 0.00 in Snow Light Snow
4:10 PM 30.2 °F 18.5 °F 26.6 °F 86% 29.73 in 3.0 mi NW 17.3 mph - 0.00 in Snow Light Snow
4:25 PM 30.2 °F 21.3 °F 26.6 °F 86% 29.73 in 3.0 mi WNW 10.4 mph - 0.00 in Snow Light Snow
4:28 PM 30.2 °F 19.8 °F 26.6 °F 86% 29.73 in 2.5 mi WNW 13.8 mph - 0.00 in Snow Light Snow
4:38 PM 28.4 °F 19.1 °F 26.6 °F 93% 29.74 in 4.0 mi WNW 10.4 mph - 0.00 in Snow Light Snow
4:45 PM 28.4 °F 18.0 °F 26.6 °F 93% 29.74 in 2.5 mi WNW 12.7 mph - 0.00 in Snow Light Snow
4:53 PM 28.9 °F 18.2 °F 27.0 °F 92% 29.83 in 1.5 mi WNW 13.8 mph - 0.00 in Snow Light Snow
5:09 PM 28.4 °F 18.0 °F 26.6 °F 93% 29.75 in 2.0 mi WNW 12.7 mph - 0.01 in Snow Light Snow
5:23 PM 28.4 °F 17.0 °F 26.6 °F 93% 29.75 in 2.5 mi NW 15.0 mph - 0.01 in Snow Light Snow
5:41 PM 28.4 °F 19.7 °F 26.6 °F 93% 29.76 in 1.5 mi NW 9.2 mph - 0.01 in Snow Light Snow
5:48 PM 28.4 °F 19.7 °F 26.6 °F 93% 29.76 in 2.5 mi WNW 9.2 mph - 0.01 in Snow Light Snow
5:53 PM 28.0 °F 19.3 °F 27.0 °F 96% 29.86 in 2.5 mi WNW 9.2 mph - 0.01 in Snow Light Snow
6:07 PM 28.4 °F 19.1 °F 26.6 °F 93% 29.77 in 3.0 mi NW 10.4 mph - 0.00 in Snow Light Snow
6:15 PM 28.4 °F 19.1 °F 26.6 °F 93% 29.77 in 2.0 mi NW 10.4 mph - 0.00 in Snow Light Snow
6:21 PM 28.4 °F 18.5 °F 26.6 °F 93% 29.77 in 2.0 mi NW 11.5 mph - 0.00 in Snow Light Snow
6:34 PM 28.4 °F 19.7 °F 26.6 °F 93% 29.77 in 2.0 mi NW 9.2 mph - 0.01 in Snow Light Snow
6:53 PM 27.0 °F 16.1 °F 26.1 °F 96% 29.88 in 2.5 mi NW 12.7 mph - 0.01 in Snow Light Snow
7:09 PM 26.6 °F 15.7 °F 24.8 °F 93% 29.78 in 4.0 mi NNW 12.7 mph - 0.00 in Snow Light Snow
7:17 PM 28.4 °F 16.6 °F 24.8 °F 86% 29.78 in 6.0 mi NNW 16.1 mph - 0.00 in Snow Light Snow
7:53 PM 26.1 °F 19.4 °F 25.0 °F 96% 29.89 in 6.0 mi WNW 5.8 mph - 0.00 in   Overcast
8:53 PM 26.1 °F 17.6 °F 24.1 °F 92% 29.90 in 4.0 mi WNW 8.1 mph - 0.00 in Snow Light Snow
9:53 PM 26.1 °F 20.5 °F 24.1 °F 92% 29.92 in 10.0 mi West 4.6 mph - 0.00 in   Overcast
10:53 PM 24.1 °F 18.2 °F 21.0 °F 88% 29.94 in 10.0 mi WNW 4.6 mph - N/A   Overcast
11:53 PM 19.0 °F 12.3 °F 18.0 °F 96% 29.97 in 10.0 mi NNW 4.6 mph - N/A   Clear